IRNSS-1A

Last updated on Wed Jul 02 2025 00:02:46 GMT+0000 (Coordinated Universal Time)

1 39199U 13034A 25181.01022829 .00000057 00000+0 00000+0 0 9993 2 39199 34.9334 68.9409 0018507 180.3268 87.7496 1.00271720 44115
UTC large
Height (km)
Speed (km/s)
/
Latitude / Longitude
Inclination (degrees)
Orbital Period (minutes)
Azimuth
Elevation
Range (km)
Doppler Factor

Next 0 passes for location: London (51.5072 / 0.1276)

Sorry there are no passes over London.